Time,TemperatureF,DewpointF,PressureIn,WindDirection,WindDirectionDegrees,WindSpeedMPH,WindSpeedGustMPH,Humidity,HourlyPrecipIn,Conditions,Clouds,dailyrainin,SoftwareType,DateUTC
2013-04-10 00:01:00,45.7,34.6,30.25,ENE,68,2.5,2.5,65,0.00,,,0.00,WUHU216HW,2013-04-10 07:01:00,
2013-04-10 00:06:00,45.7,34.6,30.24,ENE,68,2.2,2.5,65,0.00,,,0.00,WUHU216HW,2013-04-10 07:06:00,
2013-04-10 00:11:00,45.5,35.2,30.24,East,90,1.6,2.5,67,0.00,,,0.00,WUHU216HW,2013-04-10 07:11:00,
2013-04-10 00:16:00,45.4,35.0,30.24,ENE,68,1.8,2.2,67,0.00,,,0.00,WUHU216HW,2013-04-10 07:16:00,
2013-04-10 00:21:00,45.4,35.0,30.24,ENE,68,3.1,3.1,67,0.00,,,0.00,WUHU216HW,2013-04-10 07:21:00,
2013-04-10 00:26:00,45.2,34.5,30.24,ENE,68,1.8,3.1,66,0.00,,,0.00,WUHU216HW,2013-04-10 07:26:00,
2013-04-10 00:31:00,45.2,34.8,30.24,East,90,2.9,3.4,67,0.00,,,0.00,WUHU216HW,2013-04-10 07:31:00,
2013-04-10 00:36:00,45.0,34.7,30.24,East,90,2.9,3.4,67,0.00,,,0.00,WUHU216HW,2013-04-10 07:36:00,
2013-04-10 00:41:00,45.0,35.1,30.24,East,90,4.0,4.0,68,0.00,,,0.00,WUHU216HW,2013-04-10 07:41:00,
2013-04-10 00:46:00,44.8,34.9,30.24,East,90,3.4,4.0,68,0.00,,,0.00,WUHU216HW,2013-04-10 07:46:00,
2013-04-10 00:51:00,44.6,34.8,30.24,East,90,3.4,4.0,68,0.00,,,0.00,WUHU216HW,2013-04-10 07:51:00,
2013-04-10 00:56:00,44.6,35.1,30.23,East,90,2.2,3.4,69,0.00,,,0.00,WUHU216HW,2013-04-10 07:56:00,
2013-04-10 01:01:00,44.6,35.1,30.23,East,90,3.6,3.6,69,0.00,,,0.00,WUHU216HW,2013-04-10 08:01:00,
2013-04-10 01:06:00,44.6,34.8,30.23,East,90,2.5,3.6,68,0.00,,,0.00,WUHU216HW,2013-04-10 08:06:00,
2013-04-10 01:11:00,44.8,34.9,30.23,ENE,68,1.3,4.0,68,0.00,,,0.00,WUHU216HW,2013-04-10 08:11:00,
2013-04-10 01:15:00,44.8,34.9,30.23,NNE,23,0.2,4.0,68,0.00,,,0.00,WUHU216HW,2013-04-10 08:15:00,
2013-04-10 01:20:00,44.6,34.8,30.23,ENE,68,2.5,2.5,68,0.00,,,0.00,WUHU216HW,2013-04-10 08:20:00,
2013-04-10 01:25:00,44.5,34.9,30.23,NE,45,1.3,2.5,69,0.00,,,0.00,WUHU216HW,2013-04-10 08:25:00,
2013-04-10 01:30:00,44.5,34.9,30.23,NE,45,0.4,2.5,69,0.00,,,0.00,WUHU216HW,2013-04-10 08:30:00,
2013-04-10 01:35:00,44.3,35.1,30.23,East,90,2.0,2.5,70,0.00,,,0.00,WUHU216HW,2013-04-10 08:35:00,
2013-04-10 01:40:00,44.3,35.1,30.23,ENE,68,2.2,2.5,70,0.00,,,0.00,WUHU216HW,2013-04-10 08:40:00,
2013-04-10 01:45:00,44.5,35.3,30.23,NNE,23,1.1,3.1,70,0.00,,,0.00,WUHU216HW,2013-04-10 08:45:00,
2013-04-10 01:50:00,44.3,34.7,30.23,NNE,23,2.5,3.1,69,0.00,,,0.00,WUHU216HW,2013-04-10 08:50:00,
2013-04-10 01:55:00,43.9,34.5,30.22,ENE,68,1.6,2.7,69,0.00,,,0.00,WUHU216HW,2013-04-10 08:55:00,
2013-04-10 02:00:00,43.7,34.7,30.23,NNE,23,1.1,2.5,70,0.00,,,0.00,WUHU216HW,2013-04-10 09:00:00,
2013-04-10 02:05:00,43.4,34.3,30.23,NNE,23,1.8,1.8,70,0.00,,,0.00,WUHU216HW,2013-04-10 09:05:00,
2013-04-10 02:10:00,43.2,34.2,30.23,NE,45,1.8,1.8,70,0.00,,,0.00,WUHU216HW,2013-04-10 09:10:00,
2013-04-10 02:15:00,43.2,34.5,30.23,NE,45,2.5,2.5,71,0.00,,,0.00,WUHU216HW,2013-04-10 09:15:00,
2013-04-10 02:20:00,43.4,34.7,30.22,ENE,68,2.2,3.4,71,0.00,,,0.00,WUHU216HW,2013-04-10 09:20:00,
2013-04-10 02:25:00,43.7,35.0,30.22,NE,45,3.4,3.4,71,0.00,,,0.00,WUHU216HW,2013-04-10 09:25:00,
2013-04-10 02:30:00,44.1,35.3,30.21,ENE,68,2.2,3.4,71,0.00,,,0.00,WUHU216HW,2013-04-10 09:30:00,
2013-04-10 02:35:00,44.3,35.5,30.21,East,90,4.0,4.0,71,0.00,,,0.00,WUHU216HW,2013-04-10 09:35:00,
2013-04-10 02:40:00,44.5,35.3,30.21,ENE,68,4.7,5.4,70,0.00,,,0.00,WUHU216HW,2013-04-10 09:40:00,
2013-04-10 02:45:00,44.6,35.1,30.21,NE,45,2.0,5.4,69,0.00,,,0.00,WUHU216HW,2013-04-10 09:45:00,
2013-04-10 02:50:00,44.6,35.1,30.21,East,90,2.5,5.4,69,0.00,,,0.00,WUHU216HW,2013-04-10 09:50:00,
2013-04-10 02:55:00,44.5,34.9,30.22,ENE,68,1.8,3.4,69,0.00,,,0.00,WUHU216HW,2013-04-10 09:55:00,
2013-04-10 03:00:00,44.3,34.7,30.22,ENE,68,1.1,3.4,69,0.00,,,0.00,WUHU216HW,2013-04-10 10:00:00,
2013-04-10 03:05:00,44.3,34.7,30.21,ENE,68,0.9,1.8,69,0.00,,,0.00,WUHU216HW,2013-04-10 10:05:00,
2013-04-10 03:10:00,44.3,34.7,30.22,ENE,68,1.6,1.6,69,0.00,,,0.00,WUHU216HW,2013-04-10 10:10:00,
2013-04-10 03:15:00,44.1,34.6,30.21,ENE,68,0.9,1.6,69,0.00,,,0.00,WUHU216HW,2013-04-10 10:15:00,
2013-04-10 03:25:00,43.9,34.0,30.22,ENE,68,4.7,4.7,68,0.00,,,0.00,WUHU216HW,2013-04-10 10:25:00,
2013-04-10 03:30:00,43.9,34.0,30.21,ENE,68,1.1,4.7,68,0.00,,,0.00,WUHU216HW,2013-04-10 10:30:00,
2013-04-10 03:35:00,43.9,34.0,30.21,ENE,68,0.9,4.7,68,0.00,,,0.00,WUHU216HW,2013-04-10 10:35:00,
2013-04-10 03:40:00,43.7,33.8,30.21,NE,45,1.1,2.7,68,0.00,,,0.00,WUHU216HW,2013-04-10 10:40:00,
2013-04-10 03:45:00,43.6,34.1,30.21,NE,45,1.8,1.8,69,0.00,,,0.00,WUHU216HW,2013-04-10 10:45:00,
2013-04-10 03:50:00,43.6,34.1,30.21,ENE,68,1.8,2.5,69,0.00,,,0.00,WUHU216HW,2013-04-10 10:50:00,
2013-04-10 03:55:00,43.6,34.1,30.21,ENE,68,1.1,2.7,69,0.00,,,0.00,WUHU216HW,2013-04-10 10:55:00,
2013-04-10 04:00:00,43.9,34.0,30.21,East,90,3.4,3.4,68,0.00,,,0.00,WUHU216HW,2013-04-10 11:00:00,
2013-04-10 04:05:00,43.9,34.5,30.21,NNE,23,2.5,3.4,69,0.00,,,0.00,WUHU216HW,2013-04-10 11:05:00,
2013-04-10 04:10:00,43.9,34.0,30.21,ENE,68,2.5,3.4,68,0.00,,,0.00,WUHU216HW,2013-04-10 11:10:00,
2013-04-10 04:15:00,43.9,34.0,30.21,North,0,2.5,2.5,68,0.00,,,0.00,WUHU216HW,2013-04-10 11:15:00,
2013-04-10 04:20:00,43.9,34.0,30.20,NNW,338,0.4,2.5,68,0.00,,,0.00,WUHU216HW,2013-04-10 11:20:00,
2013-04-10 04:25:00,43.6,34.1,30.21,NNW,338,1.1,2.5,69,0.00,,,0.00,WUHU216HW,2013-04-10 11:25:00,
2013-04-10 04:30:00,43.4,34.3,30.20,NNW,338,0.0,1.1,70,0.00,,,0.00,WUHU216HW,2013-04-10 11:30:00,
2013-04-10 04:35:00,42.8,34.2,30.20,NNW,338,0.7,1.1,71,0.00,,,0.00,WUHU216HW,2013-04-10 11:35:00,
2013-04-10 04:40:00,42.7,33.7,30.20,NNW,338,1.1,1.1,70,0.00,,,0.00,WUHU216HW,2013-04-10 11:40:00,
2013-04-10 04:45:00,42.5,33.9,30.20,NNW,338,1.3,1.3,71,0.00,,,0.00,WUHU216HW,2013-04-10 11:45:00,
2013-04-10 04:50:00,42.3,33.7,30.19,NNW,338,0.0,1.3,71,0.00,,,0.00,WUHU216HW,2013-04-10 11:50:00,
2013-04-10 04:55:00,42.3,33.7,30.19,ENE,68,1.1,1.8,71,0.00,,,0.00,WUHU216HW,2013-04-10 11:55:00,
2013-04-10 05:02:00,42.3,33.9,30.19,East,90,4.0,4.0,72,0.00,,,0.00,WUHU216HW,2013-04-10 12:02:00,
2013-04-10 05:15:00,42.5,34.1,30.19,ENE,68,2.7,4.0,72,0.00,,,0.00,WUHU216HW,2013-04-10 12:15:00,
2013-04-10 05:21:00,43.2,34.5,30.19,ENE,68,2.9,3.1,71,0.00,,,0.00,WUHU216HW,2013-04-10 12:21:00,
2013-04-10 05:26:00,43.6,34.8,30.19,NW,315,1.6,3.4,71,0.00,,,0.00,WUHU216HW,2013-04-10 12:26:00,
2013-04-10 05:32:00,43.6,34.5,30.19,East,90,3.4,3.4,70,0.00,,,0.00,WUHU216HW,2013-04-10 12:32:00,
2013-04-10 05:37:00,43.7,34.3,30.20,NE,45,2.0,3.4,69,0.00,,,0.00,WUHU216HW,2013-04-10 12:37:00,
2013-04-10 05:42:00,43.9,34.5,30.20,East,90,1.8,3.4,69,0.00,,,0.00,WUHU216HW,2013-04-10 12:42:00,
2013-04-10 05:47:00,44.3,34.4,30.19,NNE,23,4.9,4.9,68,0.00,,,0.00,WUHU216HW,2013-04-10 12:47:00,
2013-04-10 05:52:00,44.6,34.3,30.19,ENE,68,6.3,6.3,67,0.00,,,0.00,WUHU216HW,2013-04-10 12:52:00,
2013-04-10 05:57:00,44.8,34.1,30.19,ENE,68,6.3,6.3,66,0.00,,,0.00,WUHU216HW,2013-04-10 12:57:00,
2013-04-10 06:02:00,45.0,36.2,30.18,East,90,14.3,14.3,71,0.00,,,0.00,WUHU216HW,2013-04-10 13:02:00,
2013-04-10 06:07:00,45.7,35.4,30.19,ENE,68,2.0,14.3,67,0.00,,,0.00,WUHU216HW,2013-04-10 13:07:00,
2013-04-10 06:12:00,46.1,34.9,30.19,NNW,338,2.5,14.3,65,0.00,,,0.00,WUHU216HW,2013-04-10 13:12:00,
2013-04-10 06:17:00,45.7,34.2,30.19,East,90,4.0,6.9,64,0.00,,,0.00,WUHU216HW,2013-04-10 13:17:00,
2013-04-10 06:22:00,45.4,33.8,30.19,ENE,68,2.2,4.0,64,0.00,,,0.00,WUHU216HW,2013-04-10 13:22:00,
2013-04-10 06:27:00,45.4,33.8,30.18,East,90,6.3,6.3,64,0.00,,,0.00,WUHU216HW,2013-04-10 13:27:00,
2013-04-10 06:32:00,46.1,34.9,30.18,ENE,68,4.0,6.3,65,0.00,,,0.00,WUHU216HW,2013-04-10 13:32:00,
2013-04-10 06:37:00,46.4,34.5,30.18,North,0,1.8,6.3,63,0.00,,,0.00,WUHU216HW,2013-04-10 13:37:00,
2013-04-10 06:42:00,46.1,34.1,30.18,East,90,1.6,4.0,63,0.00,,,0.00,WUHU216HW,2013-04-10 13:42:00,
2013-04-10 06:47:00,45.4,33.8,30.19,WNW,293,2.5,2.5,64,0.00,,,0.00,WUHU216HW,2013-04-10 13:47:00,
2013-04-10 06:52:00,45.4,33.8,30.18,ENE,68,1.8,2.5,64,0.00,,,0.00,WUHU216HW,2013-04-10 13:52:00,
2013-04-10 06:57:00,45.2,34.1,30.18,North,0,3.4,3.4,65,0.00,,,0.00,WUHU216HW,2013-04-10 13:57:00,
2013-04-10 07:02:00,45.2,34.1,30.18,ENE,68,1.1,3.4,65,0.00,,,0.00,WUHU216HW,2013-04-10 14:02:00,
2013-04-10 07:07:00,45.2,34.1,30.17,ENE,68,2.9,3.4,65,0.00,,,0.00,WUHU216HW,2013-04-10 14:07:00,
2013-04-10 07:12:00,45.2,34.5,30.18,NNE,23,0.9,4.0,66,0.00,,,0.00,WUHU216HW,2013-04-10 14:12:00,
2013-04-10 07:17:00,45.0,33.6,30.18,ENE,68,2.7,6.7,64,0.00,,,0.00,WUHU216HW,2013-04-10 14:17:00,
2013-04-10 07:22:00,45.0,33.6,30.18,NNE,23,4.7,6.7,64,0.00,,,0.00,WUHU216HW,2013-04-10 14:22:00,
2013-04-10 07:27:00,45.0,33.6,30.18,North,0,2.9,4.7,64,0.00,,,0.00,WUHU216HW,2013-04-10 14:27:00,
2013-04-10 07:32:00,44.8,33.4,30.19,NNE,23,2.7,4.0,64,0.00,,,0.00,WUHU216HW,2013-04-10 14:32:00,
2013-04-10 07:37:00,44.8,33.4,30.18,ENE,68,4.5,4.5,64,0.00,,,0.00,WUHU216HW,2013-04-10 14:37:00,
2013-04-10 07:42:00,45.0,33.6,30.18,ENE,68,5.8,7.6,64,0.00,,,0.00,WUHU216HW,2013-04-10 14:42:00,
2013-04-10 07:47:00,44.8,33.4,30.18,NNE,23,3.1,7.6,64,0.00,,,0.00,WUHU216HW,2013-04-10 14:47:00,
2013-04-10 07:52:00,44.8,33.8,30.18,NE,45,4.0,5.8,65,0.00,,,0.00,WUHU216HW,2013-04-10 14:52:00,
2013-04-10 07:57:00,45.0,33.9,30.17,ENE,68,3.4,4.0,65,0.00,,,0.00,WUHU216HW,2013-04-10 14:57:00,
2013-04-10 08:02:00,45.0,33.9,30.17,NNE,23,6.3,6.3,65,0.00,,,0.00,WUHU216HW,2013-04-10 15:02:00,
2013-04-10 08:07:00,45.0,33.9,30.17,NNE,23,6.3,6.3,65,0.00,,,0.00,WUHU216HW,2013-04-10 15:07:00,
2013-04-10 10:02:00,52.4,39.3,30.14,NE,45,4.0,4.0,61,0.00,,,0.00,WUHU216HW,2013-04-10 17:02:00,
2013-04-10 10:07:00,53.5,40.3,30.14,NE,45,0.9,4.5,61,0.00,,,0.00,WUHU216HW,2013-04-10 17:07:00,
2013-04-10 10:12:00,54.4,41.2,30.13,NNE,23,2.5,4.5,61,0.00,,,0.00,WUHU216HW,2013-04-10 17:12:00,
2013-04-10 10:17:00,55.1,41.9,30.13,ENE,68,1.1,2.5,61,0.00,,,0.00,WUHU216HW,2013-04-10 17:17:00,
2013-04-10 10:22:00,55.6,41.1,30.13,ENE,68,4.9,4.9,58,0.00,,,0.00,WUHU216HW,2013-04-10 17:22:00,
2013-04-10 10:27:00,55.8,42.9,30.13,North,0,7.6,7.6,62,0.00,,,0.00,WUHU216HW,2013-04-10 17:27:00,
2013-04-10 10:32:00,57.6,44.3,30.13,NW,315,12.5,12.5,61,0.00,,,0.00,WUHU216HW,2013-04-10 17:32:00,
2013-04-10 10:37:00,58.9,44.1,30.12,NNW,338,11.4,12.5,58,0.00,,,0.00,WUHU216HW,2013-04-10 17:37:00,
2013-04-10 10:42:00,59.4,44.7,30.12,NW,315,11.9,12.5,58,0.00,,,0.00,WUHU216HW,2013-04-10 17:42:00,
2013-04-10 10:47:00,60.1,44.8,30.12,WNW,293,6.0,11.9,57,0.00,,,0.00,WUHU216HW,2013-04-10 17:47:00,
2013-04-10 10:52:00,60.5,45.2,30.13,NNW,338,8.7,11.9,57,0.00,,,0.00,WUHU216HW,2013-04-10 17:52:00,
2013-04-10 10:57:00,59.8,43.6,30.12,NW,315,9.6,9.6,55,0.00,,,0.00,WUHU216HW,2013-04-10 17:57:00,
2013-04-10 11:03:00,59.2,43.9,30.12,NNW,338,8.7,9.6,57,0.00,,,0.00,WUHU216HW,2013-04-10 18:03:00,
2013-04-10 11:08:00,58.7,43.0,30.12,NNW,338,10.3,10.3,56,0.00,,,0.00,WUHU216HW,2013-04-10 18:08:00,
2013-04-10 11:13:00,59.0,43.3,30.12,NW,315,10.3,10.5,56,0.00,,,0.00,WUHU216HW,2013-04-10 18:13:00,
2013-04-10 11:18:00,59.4,43.7,30.12,North,0,8.5,10.5,56,0.00,,,0.00,WUHU216HW,2013-04-10 18:18:00,
2013-04-10 11:23:00,59.4,43.7,30.12,North,0,11.2,11.2,56,0.00,,,0.00,WUHU216HW,2013-04-10 18:23:00,
2013-04-10 11:28:00,58.9,43.7,30.12,North,0,12.1,12.1,57,0.00,,,0.00,WUHU216HW,2013-04-10 18:28:00,
2013-04-10 11:33:00,58.5,43.3,30.13,NW,315,5.8,12.1,57,0.00,,,0.00,WUHU216HW,2013-04-10 18:33:00,
2013-04-10 11:38:00,58.0,43.3,30.13,North,0,11.0,12.1,58,0.00,,,0.00,WUHU216HW,2013-04-10 18:38:00,
2013-04-10 11:43:00,57.2,42.7,30.13,WNW,293,6.3,11.0,58,0.00,,,0.00,WUHU216HW,2013-04-10 18:43:00,
2013-04-10 11:48:00,56.9,42.3,30.14,North,0,6.9,11.0,58,0.00,,,0.00,WUHU216HW,2013-04-10 18:48:00,
2013-04-10 11:53:00,56.3,42.7,30.14,WNW,293,8.3,13.4,60,0.00,,,0.00,WUHU216HW,2013-04-10 18:53:00,
2013-04-10 11:58:00,56.2,43.8,30.15,North,0,12.3,13.4,63,0.00,,,0.00,WUHU216HW,2013-04-10 18:58:00,
2013-04-10 12:03:00,55.1,44.3,30.14,WNW,293,11.0,12.3,67,0.00,,,0.00,WUHU216HW,2013-04-10 19:03:00,
2013-04-10 12:08:00,54.4,43.7,30.14,NNW,338,9.6,12.3,67,0.00,,,0.00,WUHU216HW,2013-04-10 19:08:00,
2013-04-10 12:13:00,54.4,44.0,30.14,NNW,338,6.7,11.0,68,0.00,,,0.00,WUHU216HW,2013-04-10 19:13:00,
2013-04-10 12:18:00,54.4,44.0,30.14,NNW,338,6.7,9.6,68,0.00,,,0.00,WUHU216HW,2013-04-10 19:18:00,
2013-04-10 13:02:00,55.4,42.2,30.13,NW,315,8.9,12.8,61,0.00,,,0.00,WUHU216HW,2013-04-10 20:02:00,
2013-04-10 13:07:00,55.4,41.8,30.13,NNE,23,12.8,12.8,60,0.00,,,0.00,WUHU216HW,2013-04-10 20:07:00,
2013-04-10 13:12:00,55.3,41.6,30.13,WNW,293,11.0,12.8,60,0.00,,,0.00,WUHU216HW,2013-04-10 20:12:00,
2013-04-10 13:17:00,55.6,41.5,30.12,NW,315,14.1,14.1,59,0.00,,,0.00,WUHU216HW,2013-04-10 20:17:00,
2013-04-10 13:23:00,56.3,41.2,30.12,WNW,293,13.2,17.9,57,0.00,,,0.00,WUHU216HW,2013-04-10 20:23:00,
2013-04-10 13:27:00,56.2,41.6,30.12,NNE,23,14.1,17.9,58,0.00,,,0.00,WUHU216HW,2013-04-10 20:27:00,
2013-04-10 13:33:00,57.6,42.0,30.12,NW,315,7.4,14.1,56,0.00,,,0.00,WUHU216HW,2013-04-10 20:33:00,
2013-04-10 13:38:00,57.8,42.2,30.11,NNW,338,10.5,19.9,56,0.00,,,0.00,WUHU216HW,2013-04-10 20:38:00,
2013-04-10 13:43:00,58.9,42.2,30.11,NNW,338,12.5,19.9,54,0.00,,,0.00,WUHU216HW,2013-04-10 20:43:00,
2013-04-10 13:48:00,58.7,41.1,30.10,NW,315,14.8,17.4,52,0.00,,,0.00,WUHU216HW,2013-04-10 20:48:00,
2013-04-10 13:53:00,58.5,40.5,30.10,WSW,248,9.4,17.7,51,0.00,,,0.00,WUHU216HW,2013-04-10 20:53:00,
2013-04-10 13:58:00,58.3,40.8,30.11,NNE,23,15.0,17.7,52,0.00,,,0.00,WUHU216HW,2013-04-10 20:58:00,
2013-04-10 14:03:00,58.7,41.1,30.11,WSW,248,11.4,15.0,52,0.00,,,0.00,WUHU216HW,2013-04-10 21:03:00,
2013-04-10 14:08:00,58.7,39.6,30.11,West,270,15.0,15.0,49,0.00,,,0.00,WUHU216HW,2013-04-10 21:08:00,
2013-04-10 14:13:00,58.1,39.7,30.11,WNW,293,15.2,15.2,50,0.00,,,0.00,WUHU216HW,2013-04-10 21:13:00,
2013-04-10 14:18:00,59.4,39.1,30.12,West,270,9.4,15.2,47,0.00,,,0.00,WUHU216HW,2013-04-10 21:18:00,
2013-04-10 14:23:00,59.6,40.4,30.12,SW,225,16.3,16.3,49,0.00,,,0.00,WUHU216HW,2013-04-10 21:23:00,
2013-04-10 14:28:00,59.4,39.1,30.12,West,270,11.2,16.3,47,0.00,,,0.00,WUHU216HW,2013-04-10 21:28:00,
2013-04-10 14:33:00,59.8,38.3,30.13,SW,225,6.3,16.3,45,0.00,,,0.00,WUHU216HW,2013-04-10 21:33:00,
2013-04-10 14:38:00,59.4,38.5,30.14,SW,225,7.2,11.2,46,0.00,,,0.00,WUHU216HW,2013-04-10 21:38:00,
2013-04-10 14:43:00,58.7,38.4,30.13,West,270,2.5,7.2,47,0.00,,,0.00,WUHU216HW,2013-04-10 21:43:00,
2013-04-10 14:48:00,58.5,35.4,30.14,West,270,5.6,7.2,42,0.00,,,0.00,WUHU216HW,2013-04-10 21:48:00,
2013-04-10 14:53:00,58.1,38.0,30.14,SW,225,8.1,8.1,47,0.00,,,0.00,WUHU216HW,2013-04-10 21:53:00,
2013-04-10 14:58:00,58.0,38.3,30.14,WSW,248,6.5,8.1,48,0.00,,,0.00,WUHU216HW,2013-04-10 21:58:00,
2013-04-10 15:03:00,57.6,32.8,30.14,WSW,248,15.7,15.7,39,0.00,,,0.00,WUHU216HW,2013-04-10 22:03:00,
2013-04-10 15:08:00,58.0,33.0,30.13,SW,225,7.6,15.7,39,0.00,,,0.00,WUHU216HW,2013-04-10 22:08:00,
2013-04-10 15:13:00,59.8,33.3,30.12,SW,225,12.8,15.7,37,0.00,,,0.00,WUHU216HW,2013-04-10 22:13:00,
2013-04-10 15:18:00,60.1,33.6,30.12,WSW,248,8.9,13.4,37,0.00,,,0.00,WUHU216HW,2013-04-10 22:18:00,
2013-04-10 15:23:00,59.6,33.1,30.11,SSW,203,12.1,16.3,37,0.00,,,0.00,WUHU216HW,2013-04-10 22:23:00,
2013-04-10 15:28:00,59.0,32.7,30.12,WSW,248,9.4,16.3,37,0.00,,,0.00,WUHU216HW,2013-04-10 22:28:00,
2013-04-10 15:33:00,58.9,35.7,30.13,West,270,10.5,12.1,42,0.00,,,0.00,WUHU216HW,2013-04-10 22:33:00,
2013-04-10 15:38:00,58.7,33.0,30.14,WSW,248,7.8,10.5,38,0.00,,,0.00,WUHU216HW,2013-04-10 22:38:00,
2013-04-10 15:43:00,58.7,35.6,30.14,SW,225,8.5,10.5,42,0.00,,,0.00,WUHU216HW,2013-04-10 22:43:00,
2013-04-10 15:48:00,59.8,37.1,30.15,WSW,248,9.8,9.8,43,0.00,,,0.00,WUHU216HW,2013-04-10 22:48:00,
2013-04-10 15:53:00,58.7,37.3,30.15,SSW,203,6.0,13.4,45,0.00,,,0.00,WUHU216HW,2013-04-10 22:53:00,
2013-04-10 15:58:00,58.5,38.3,30.15,SW,225,6.9,13.4,47,0.00,,,0.00,WUHU216HW,2013-04-10 22:58:00,
2013-04-10 16:03:00,59.0,37.6,30.16,SW,225,7.6,7.6,45,0.00,,,0.00,WUHU216HW,2013-04-10 23:03:00,
2013-04-10 16:08:00,58.3,37.5,30.15,WSW,248,11.4,11.4,46,0.00,,,0.00,WUHU216HW,2013-04-10 23:08:00,
2013-04-10 16:13:00,58.1,37.4,30.15,SW,225,13.0,15.9,46,0.00,,,0.00,WUHU216HW,2013-04-10 23:13:00,
2013-04-10 16:18:00,57.8,37.6,30.15,SW,225,9.2,15.9,47,0.00,,,0.00,WUHU216HW,2013-04-10 23:18:00,
2013-04-10 16:23:00,57.4,36.7,30.15,WSW,248,12.8,13.0,46,0.00,,,0.00,WUHU216HW,2013-04-10 23:23:00,
2013-04-10 16:28:00,57.6,36.4,30.15,WSW,248,19.9,19.9,45,0.00,,,0.00,WUHU216HW,2013-04-10 23:28:00,
2013-04-10 16:33:00,57.2,37.2,30.16,WSW,248,10.5,19.9,47,0.00,,,0.00,WUHU216HW,2013-04-10 23:33:00,
2013-04-10 16:38:00,56.3,38.0,30.16,SW,225,11.9,19.9,50,0.00,,,0.00,WUHU216HW,2013-04-10 23:38:00,
2013-04-10 16:43:00,56.2,37.8,30.16,WSW,248,10.1,11.9,50,0.00,,,0.00,WUHU216HW,2013-04-10 23:43:00,
2013-04-10 16:48:00,56.0,37.1,30.16,West,270,14.5,14.5,49,0.00,,,0.00,WUHU216HW,2013-04-10 23:48:00,
2013-04-10 16:53:00,56.0,37.6,30.16,WSW,248,14.3,14.5,50,0.00,,,0.00,WUHU216HW,2013-04-10 23:53:00,
2013-04-10 16:58:00,55.8,37.4,30.16,WSW,248,6.9,14.5,50,0.00,,,0.00,WUHU216HW,2013-04-10 23:58:00,
2013-04-10 17:03:00,55.8,37.9,30.16,SW,225,12.1,14.3,51,0.00,,,0.00,WUHU216HW,2013-04-11 00:03:00,
2013-04-10 17:08:00,55.4,37.5,30.16,West,270,12.1,12.1,51,0.00,,,0.00,WUHU216HW,2013-04-11 00:08:00,
2013-04-10 17:13:00,55.1,37.7,30.16,West,270,15.7,15.7,52,0.00,,,0.00,WUHU216HW,2013-04-11 00:13:00,
2013-04-10 17:18:00,54.7,35.9,30.16,West,270,16.3,16.3,49,0.00,,,0.00,WUHU216HW,2013-04-11 00:18:00,
2013-04-10 17:23:00,54.7,34.7,30.16,West,270,11.9,16.3,47,0.00,,,0.00,WUHU216HW,2013-04-11 00:23:00,
2013-04-10 17:28:00,55.1,35.1,30.16,WSW,248,6.3,16.3,47,0.00,,,0.00,WUHU216HW,2013-04-11 00:28:00,
2013-04-10 17:33:00,55.3,33.0,30.16,West,270,16.3,16.3,43,0.00,,,0.00,WUHU216HW,2013-04-11 00:33:00,
2013-04-10 17:38:00,54.9,33.9,30.16,WSW,248,7.8,16.3,45,0.00,,,0.00,WUHU216HW,2013-04-11 00:38:00,
2013-04-10 17:43:00,55.1,34.6,30.16,SW,225,13.9,16.3,46,0.00,,,0.00,WUHU216HW,2013-04-11 00:43:00,
2013-04-10 17:48:00,54.7,34.7,30.17,SW,225,14.1,15.7,47,0.00,,,0.00,WUHU216HW,2013-04-11 00:48:00,
2013-04-10 17:53:00,54.7,34.7,30.17,SW,225,14.1,14.1,47,0.00,,,0.00,WUHU216HW,2013-04-11 00:53:00,
2013-04-10 17:58:00,54.7,34.7,30.17,SW,225,14.1,14.1,47,0.00,,,0.00,WUHU216HW,2013-04-11 00:58:00,
2013-04-10 18:03:00,53.6,36.4,30.16,West,270,11.2,12.1,52,0.00,,,0.00,WUHU216HW,2013-04-11 01:03:00,
2013-04-10 18:08:00,53.5,36.3,30.17,WSW,248,7.4,12.1,52,0.00,,,0.00,WUHU216HW,2013-04-11 01:08:00,
2013-04-10 18:13:00,53.6,35.5,30.16,SSW,203,10.5,10.5,50,0.00,,,0.00,WUHU216HW,2013-04-11 01:13:00,
2013-04-10 18:18:00,54.0,34.1,30.16,SW,225,3.8,10.5,47,0.00,,,0.00,WUHU216HW,2013-04-11 01:18:00,
2013-04-10 18:23:00,54.2,34.8,30.16,SW,225,5.8,10.5,48,0.00,,,0.00,WUHU216HW,2013-04-11 01:23:00,
2013-04-10 18:28:00,54.2,34.8,30.16,SW,225,5.8,5.8,48,0.00,,,0.00,WUHU216HW,2013-04-11 01:28:00,
2013-04-10 18:33:00,54.2,34.8,30.16,SW,225,5.8,5.8,48,0.00,,,0.00,WUHU216HW,2013-04-11 01:33:00,
2013-04-10 18:43:00,53.1,32.8,30.17,WNW,293,8.3,11.0,46,0.00,,,0.00,WUHU216HW,2013-04-11 01:43:00,
2013-04-10 18:48:00,52.9,33.1,30.17,WSW,248,8.7,11.0,47,0.00,,,0.00,WUHU216HW,2013-04-11 01:48:00,
2013-04-10 18:53:00,52.9,33.1,30.17,WSW,248,2.9,8.7,47,0.00,,,0.00,WUHU216HW,2013-04-11 01:53:00,
2013-04-10 18:58:00,52.4,33.2,30.17,WSW,248,7.8,8.7,48,0.00,,,0.00,WUHU216HW,2013-04-11 01:58:00,
2013-04-10 19:03:00,52.2,33.0,30.18,WSW,248,2.5,8.3,48,0.00,,,0.00,WUHU216HW,2013-04-11 02:03:00,
2013-04-10 19:08:00,52.2,33.0,30.18,WNW,293,5.1,7.8,48,0.00,,,0.00,WUHU216HW,2013-04-11 02:08:00,
2013-04-10 19:13:00,52.0,33.5,30.18,West,270,4.9,5.1,49,0.00,,,0.00,WUHU216HW,2013-04-11 02:13:00,
2013-04-10 19:18:00,52.0,33.5,30.18,West,270,4.9,5.1,49,0.00,,,0.00,WUHU216HW,2013-04-11 02:18:00,
2013-04-10 19:23:00,52.0,33.5,30.18,West,270,4.9,4.9,49,0.00,,,0.00,WUHU216HW,2013-04-11 02:23:00,
2013-04-10 19:28:00,50.0,33.6,30.18,West,270,8.5,8.5,53,0.00,,,0.00,WUHU216HW,2013-04-11 02:28:00,
2013-04-10 19:33:00,49.9,33.4,30.19,WSW,248,9.6,9.6,53,0.00,,,0.00,WUHU216HW,2013-04-11 02:33:00,
2013-04-10 19:38:00,49.7,32.8,30.19,WSW,248,4.9,9.6,52,0.00,,,0.00,WUHU216HW,2013-04-11 02:38:00,
2013-04-10 19:43:00,49.3,32.0,30.19,West,270,3.1,9.6,51,0.00,,,0.00,WUHU216HW,2013-04-11 02:43:00,
2013-04-10 19:48:00,49.1,32.2,30.19,NW,315,1.6,6.5,52,0.00,,,0.00,WUHU216HW,2013-04-11 02:48:00,
2013-04-10 19:53:00,49.0,32.5,30.19,NNW,338,5.4,6.5,53,0.00,,,0.00,WUHU216HW,2013-04-11 02:53:00,
2013-04-10 19:58:00,48.6,32.1,30.19,West,270,2.7,5.4,53,0.00,,,0.00,WUHU216HW,2013-04-11 02:58:00,
2013-04-10 20:03:00,48.2,32.8,30.19,WNW,293,5.1,5.4,55,0.00,,,0.00,WUHU216HW,2013-04-11 03:03:00,
2013-04-10 20:08:00,48.1,32.6,30.19,NNW,338,2.9,5.4,55,0.00,,,0.00,WUHU216HW,2013-04-11 03:08:00,
2013-04-10 20:13:00,47.9,32.4,30.19,NW,315,2.5,5.1,55,0.00,,,0.00,WUHU216HW,2013-04-11 03:13:00,
2013-04-10 20:18:00,47.7,32.7,30.20,WNW,293,3.1,3.1,56,0.00,,,0.00,WUHU216HW,2013-04-11 03:18:00,
2013-04-10 20:23:00,47.5,32.6,30.20,West,270,3.4,3.4,56,0.00,,,0.00,WUHU216HW,2013-04-11 03:23:00,
2013-04-10 20:28:00,47.3,32.9,30.20,West,270,2.2,5.4,57,0.00,,,0.00,WUHU216HW,2013-04-11 03:28:00,
2013-04-10 20:33:00,47.2,32.7,30.20,WNW,293,1.8,5.4,57,0.00,,,0.00,WUHU216HW,2013-04-11 03:33:00,
2013-04-10 20:38:00,46.8,32.3,30.20,NW,315,1.3,3.1,57,0.00,,,0.00,WUHU216HW,2013-04-11 03:38:00,
2013-04-10 20:43:00,46.6,32.1,30.20,West,270,3.8,3.8,57,0.00,,,0.00,WUHU216HW,2013-04-11 03:43:00,
2013-04-10 20:48:00,46.4,32.0,30.20,NNW,338,2.2,3.8,57,0.00,,,0.00,WUHU216HW,2013-04-11 03:48:00,
2013-04-10 20:53:00,46.4,31.5,30.21,North,0,6.3,6.3,56,0.00,,,0.00,WUHU216HW,2013-04-11 03:53:00,
2013-04-10 20:58:00,46.4,31.5,30.20,NNW,338,3.1,6.3,56,0.00,,,0.00,WUHU216HW,2013-04-11 03:58:00,
2013-04-10 21:03:00,46.4,31.5,30.21,WNW,293,1.1,6.3,56,0.00,,,0.00,WUHU216HW,2013-04-11 04:03:00,
2013-04-10 21:08:00,46.1,31.1,30.21,WNW,293,2.2,4.7,56,0.00,,,0.00,WUHU216HW,2013-04-11 04:08:00,
2013-04-10 21:13:00,46.3,31.3,30.21,WSW,248,3.4,4.7,56,0.00,,,0.00,WUHU216HW,2013-04-11 04:13:00,
2013-04-10 21:18:00,46.1,31.1,30.20,SW,225,4.0,4.0,56,0.00,,,0.00,WUHU216HW,2013-04-11 04:18:00,
2013-04-10 21:23:00,46.1,31.1,30.20,SW,225,4.0,4.0,56,0.00,,,0.00,WUHU216HW,2013-04-11 04:23:00,
2013-04-10 22:02:00,44.1,30.2,30.21,WSW,248,2.9,2.9,58,0.00,,,0.00,WUHU216HW,2013-04-11 05:02:00,
2013-04-10 23:02:00,42.7,30.9,30.20,WSW,248,1.8,2.5,63,0.00,,,0.00,WUHU216HW,2013-04-11 06:02:00,
2013-04-10 23:07:00,42.5,30.7,30.20,WSW,248,1.3,2.5,63,0.00,,,0.00,WUHU216HW,2013-04-11 06:07:00,
2013-04-10 23:12:00,42.1,30.4,30.19,SSW,203,2.2,2.2,63,0.00,,,0.00,WUHU216HW,2013-04-11 06:12:00,
2013-04-10 23:17:00,41.8,30.1,30.19,SSW,203,1.8,2.2,63,0.00,,,0.00,WUHU216HW,2013-04-11 06:17:00,
2013-04-10 23:22:00,41.4,30.5,30.19,SSW,203,2.5,2.5,65,0.00,,,0.00,WUHU216HW,2013-04-11 06:22:00,
2013-04-10 23:27:00,41.4,30.5,30.19,WSW,248,2.2,2.9,65,0.00,,,0.00,WUHU216HW,2013-04-11 06:27:00,
2013-04-10 23:32:00,41.2,30.3,30.19,WSW,248,1.3,2.9,65,0.00,,,0.00,WUHU216HW,2013-04-11 06:32:00,
2013-04-10 23:37:00,41.2,30.3,30.20,WSW,248,1.8,2.5,65,0.00,,,0.00,WUHU216HW,2013-04-11 06:37:00,
2013-04-10 23:42:00,41.0,30.2,30.20,WSW,248,3.8,3.8,65,0.00,,,0.00,WUHU216HW,2013-04-11 06:42:00,
2013-04-10 23:47:00,41.0,30.2,30.20,SW,225,2.9,3.8,65,0.00,,,0.00,WUHU216HW,2013-04-11 06:47:00,
2013-04-10 23:52:00,41.0,30.2,30.20,West,270,1.8,4.7,65,0.00,,,0.00,WUHU216HW,2013-04-11 06:52:00,
2013-04-10 23:57:00,40.7,29.8,30.21,SW,225,0.7,4.7,65,0.00,,,0.00,WUHU216HW,2013-04-11 06:57:00,